Flag for U.S.A. Weather past 2 weeks in Shiprock, New Mexico, U.S.A.

Now
36 °F

Clear.


Feels Like: 28 °F
Forecast: 36 / 55 °F
Wind: 13 mph from East

Location: Four Corners Regional Airport

Current Time: Mar 2, 2015 at 4:49:08 AM

Latest Report: Mar 2, 2015 at 3:53 AM


Visibility: 10 mi

Pressure: 29.97 "Hg

Humidity: 92%

Dew point: 34 °F

Location of ShiprockLocation

Historic Weather in Shiprock — Graph

°F

Shiprock temperature yesterday

Maximum temperature yesterday: 46 °F (at 4:53 PM)
Minimum temperature yesterday: 32 °F (at 12:53 AM)
Average temperature yesterday: 37 °F

Past Weeks' High & Low Weather Summary

 TemperatureHumidityPressure
High61 °F (Feb 15, 1:53 PM)100% (Feb 23, 9:00 PM)30.30 "Hg (Feb 23, 9:00 PM)
Low16 °F (Feb 17, 6:53 AM)12% (Feb 18, 2:53 PM)29.75 "Hg (Feb 28, 5:00 AM)
Average36 °F63%30.00 "Hg
* Reported Feb 15 3:53 AM — Mar 2 3:53 AM, Shiprock, Weather by CustomWeather, © 2015

Note: Actual official high and low records may vary slightly from our data, if they occured in-between our weather recording intervals... More about our weather records

Advertising

Shiprock weather history for previous 24 hours

 ConditionsComfort  
Time TempWeatherWind HumidityBarometerVisibility
3:53 AM
Mon, Mar 2
36 °FClear.13 mph92%29.97 "Hg10 mi
2:53 AM36 °FClear.9 mph92%30.01 "Hg10 mi
1:53 AM37 °FPassing clouds.8 mph89%30.04 "Hg10 mi
12:53 AM37 °FPassing clouds.8 mph89%30.05 "Hg10 mi
11:53 PM
Sun, Mar 1
37 °FMostly cloudy.8 mph93%30.06 "Hg10 mi
10:53 PM37 °FOvercast.7 mph89%30.10 "Hg10 mi
9:53 PM37 °FPassing clouds.10 mph89%30.10 "Hg10 mi
8:53 PM38 °FPassing clouds.10 mph86%30.10 "Hg10 mi
7:53 PM39 °FPassing clouds.8 mph86%30.09 "Hg10 mi
6:53 PM41 °FOvercast.12 mph82%30.07 "Hg10 mi
5:53 PM43 °FPassing clouds.9 mph79%30.05 "Hg10 mi
4:53 PM46 °FScattered clouds.7 mph77%30.04 "Hg10 mi
3:53 PM45 °FOvercast.6 mph76%30.04 "Hg10 mi
2:53 PM44 °FPartly sunny.8 mph79%30.04 "Hg10 mi
1:53 PM41 °FOvercast.13 mph82%30.06 "Hg10 mi
12:53 PM39 °FLight rain. Mostly cloudy.14 mph86%30.09 "Hg10 mi
11:53 AM38 °FMostly cloudy.9 mph86%30.11 "Hg10 mi
10:53 AM35 °FMore clouds than sun.10 mph92%30.12 "Hg10 mi
9:53 AM33 °FLight snow. Fog.8 mph96%30.15 "Hg2 mi
8:53 AM33 °FLight snow. Fog.7 mph96%30.14 "Hg2 mi
8:02 AM34 °FLight rain. Fog.3 mph92%30.08 "Hg4 mi
7:53 AM34 °FLight rain. Fog.3 mph92%30.11 "Hg6 mi
6:53 AM34 °FOvercast.3 mph92%30.09 "Hg10 mi
5:53 AM34 °FLight rain. Mostly cloudy.6 mph88%30.08 "Hg10 mi
4:53 AM34 °FMostly cloudy.6 mph88%30.05 "Hg10 mi
Weather by CustomWeather, © 2015

See weather overviewHow to use our weather pages